Location: Caltech
(34.1382°N, 118.1253°W)
Time: 22:30:43
(UTC-07:00)

SO-50 - Visible Passes

Search period start: 31 October 2014 00:00
Search period end: 09 November 2014 23:00
Orbit: 603 x 693 km, 64.6° (Epoch: 31 October)

Date Brightness Start Highest point End Pass type
(mag) Time Alt. Az. Time Alt. Az. Time Alt. Az.
31 Oct ? 19:22:50 10° N 19:25:32 20° NNE 19:25:32 20° NNE visible
31 Oct ? 21:02:39 10° NW 21:03:18 14° NW 21:03:18 14° NW visible
01 Nov ? 19:48:39 10° NNW 19:52:12 41° NNE 19:52:12 41° NNE visible
02 Nov ? 17:36:05 10° N 17:39:02 16° NE 17:41:20 12° E visible
02 Nov ? 19:15:10 10° NW 19:19:09 52° WNW 19:19:09 52° WNW visible
03 Nov ? 18:01:30 10° NNW 18:06:00 36° NE 18:08:39 21° ESE visible
03 Nov ? 19:42:32 10° WNW 19:46:19 23° WSW 19:46:30 23° WSW visible
04 Nov ? 18:27:46 10° NNW 18:32:40 88° WSW 18:36:36 16° SSE visible
05 Nov ? 17:14:27 10° N 17:18:33 26° NE 17:22:39 10° ESE visible
05 Nov ? 18:54:46 10° NW 18:59:05 32° WSW 19:03:25 10° S visible
06 Nov ? 17:40:27 10° NNW 17:45:18 66° ENE 17:50:10 10° SE visible
06 Nov ? 19:23:33 10° W 19:25:17 12° WSW 19:27:02 10° SW visible
07 Nov ? 18:07:09 10° NW 18:11:49 46° WSW 18:16:28 10° S visible
08 Nov ? 18:34:55 10° WNW 18:38:05 17° WSW 18:41:15 10° SSW visible
09 Nov ? 17:19:39 10° NW 17:24:30 67° WSW 17:29:20 10° SSE visible
